Location: Apeadero de Los Molinos-Guadarrama
(40.7091°N, 4.0689°W)
Time: 11:57:55
(UTC+00:00)

ISS - Pass Details

Date: 14 May 2021
Orbit: 417 x 422 km, 51.6° (Epoch: 18 June)

Event Time Altitude Azimuth Distance (km) Brightness Sun altitude
Rises 20:44:18 0° 215° (SW) 2,347 0.0 -13.3°
Reaches altitude 10° 20:46:27 10° 207° (SSW) 1,489 -1.1 -13.6°
Maximum altitude 20:49:36 39° 137° (SE) 645 -3.3 -14.1°
Drops below altitude 10° 20:52:46 10° 67° (ENE) 1,501 -1.2 -14.5°
Enters shadow 20:54:42 - 60° (ENE) 2,274 -0.2 -14.8°
